Location: Anuling
(14.1239°N, 120.8922°E)
Time: 06:20:50
(UTC+00:00)

Ariane H10+ - Pass Details

Date: 14 January 2026
Orbit: 287 x 20710 km, 6.5° (Epoch: 7 February)

Event Time Altitude Azimuth Distance (km) Brightness Sun altitude
Rises 10:23:56 0° 263° (W) 8,301 9.7 -9.3°
Reaches altitude 10° 10:32:48 10° 257° (WSW) 4,700 8.1 -11.3°
Maximum altitude 10:41:21 34° 195° (SSW) 1,181 3.8 -13.3°
Enters shadow 10:44:08 11° 126° (SE) 1,526 3.7 -13.9°
